MSR611 OKKK-HECA

Flight info

Callsign MSR611
Flight time 2h 21m
Altitude 38000
Route NIDAP L550 NOVPA N697 MENLI L677 CVO
Aircraft B77W/H-SDE1E2E3FGHIJ2J3J4J5M1RWXY/LB1D1

Departure

Time 2026-05-04 20:29
Airport Kuwait International Airport (OKKK)

Arrival

Time 2026-05-04 22:50
Airport Cairo International Airport (HECA)
Time Latitude Longitude Altitude Speed Heading
2026-05-04 20:02 29.23763 47.97156 160 ft 0 kts 66°
2026-05-04 20:20 29.23761 47.97151 160 ft 2 kts 66°
2026-05-04 20:20 29.23756 47.97135 160 ft 2 kts 79°
2026-05-04 20:20 29.23755 47.97118 159 ft 2 kts 95°
2026-05-04 20:20 29.23757 47.97101 159 ft 2 kts 108°
2026-05-04 20:21 29.23763 47.97085 159 ft 2 kts 122°
2026-05-04 20:21 29.23773 47.97070 158 ft 2 kts 137°
2026-05-04 20:21 29.23793 47.97055 158 ft 1 kts 157°
2026-05-04 20:24 29.23792 47.97056 158 ft 1 kts 157°
2026-05-04 20:24 29.23767 47.97067 158 ft 5 kts 158°
2026-05-04 20:24 29.23714 47.97092 159 ft 9 kts 153°
2026-05-04 20:25 29.23645 47.97146 159 ft 13 kts 138°
2026-05-04 20:25 29.23550 47.97180 158 ft 16 kts 224°
2026-05-04 20:25 29.23492 47.97042 155 ft 21 kts 249°
2026-05-04 20:25 29.23429 47.96876 155 ft 23 kts 245°
2026-05-04 20:26 29.23406 47.96764 153 ft 14 kts 300°
2026-05-04 20:26 29.23483 47.96695 151 ft 14 kts 329°
2026-05-04 20:26 29.23571 47.96648 151 ft 13 kts 336°
2026-05-04 20:26 29.23669 47.96601 151 ft 18 kts 338°
2026-05-04 20:27 29.23797 47.96535 151 ft 21 kts 335°
2026-05-04 20:27 29.23942 47.96458 150 ft 22 kts 334°
2026-05-04 20:27 29.24075 47.96387 149 ft 10 kts 335°
2026-05-04 20:27 29.24090 47.96317 147 ft 10 kts 250°
2026-05-04 20:28 29.24046 47.96225 147 ft 14 kts 232°
2026-05-04 20:28 29.23959 47.96202 148 ft 3 kts 159°
2026-05-04 20:28 29.23933 47.96214 148 ft 4 kts 156°
2026-05-04 20:28 29.23801 47.96280 148 ft 54 kts 156°
2026-05-04 20:29 29.23209 47.96594 154 ft 131 kts 156°
2026-05-04 20:29 29.22124 47.97193 331 ft 183 kts 154°
2026-05-04 20:29 29.20978 47.97861 1202 ft 186 kts 153°
2026-05-04 20:29 29.19786 47.98449 2024 ft 193 kts 154°
2026-05-04 20:30 29.18432 47.99139 2581 ft 213 kts 153°
2026-05-04 20:30 29.16992 47.99902 3150 ft 234 kts 153°
2026-05-04 20:30 29.15402 48.00748 3819 ft 251 kts 153°
2026-05-04 20:30 29.13780 48.01609 4523 ft 266 kts 154°
2026-05-04 20:31 29.12090 48.02504 5330 ft 275 kts 155°
2026-05-04 20:31 29.10339 48.03432 5861 ft 281 kts 156°
2026-05-04 20:31 29.08454 48.04079 5967 ft 281 kts 177°
2026-05-04 20:31 29.06519 48.03987 5982 ft 281 kts 187°
2026-05-04 20:32 29.04527 48.03690 6022 ft 292 kts 188°
2026-05-04 20:32 29.02489 48.03369 7031 ft 292 kts 189°
2026-05-04 20:32 29.00514 48.03064 8262 ft 284 kts 189°
2026-05-04 20:32 28.98520 48.02759 9184 ft 287 kts 191°
2026-05-04 20:33 28.96481 48.02447 9809 ft 292 kts 191°
2026-05-04 20:33 28.94359 48.02125 9957 ft 293 kts 191°
2026-05-04 20:33 28.92286 48.01811 9963 ft 292 kts 191°
2026-05-04 20:33 28.90085 48.01474 10322 ft 315 kts 191°
2026-05-04 20:34 28.87848 48.01133 10967 ft 330 kts 191°
2026-05-04 20:34 28.85405 48.00762 11679 ft 345 kts 192°
2026-05-04 20:34 28.82839 48.00369 11976 ft 370 kts 191°
2026-05-04 20:34 28.80153 47.99961 11988 ft 378 kts 191°
2026-05-04 20:35 28.77417 47.99550 11994 ft 380 kts 191°
2026-05-04 20:35 28.74754 47.99073 12000 ft 377 kts 197°
2026-05-04 20:35 28.72263 47.98116 11999 ft 374 kts 207°
2026-05-04 20:35 28.69950 47.96608 12000 ft 373 kts 218°
2026-05-04 20:36 28.67944 47.94551 12588 ft 384 kts 230°
2026-05-04 20:36 28.66357 47.92101 13978 ft 377 kts 238°
2026-05-04 20:36 28.64958 47.89677 15291 ft 373 kts 238°
2026-05-04 20:36 28.63628 47.87335 16292 ft 377 kts 239°
2026-05-04 20:37 28.62205 47.84699 17214 ft 384 kts 243°
2026-05-04 20:37 28.61130 47.81788 18250 ft 388 kts 253°
2026-05-04 20:37 28.60516 47.78644 19243 ft 394 kts 262°
2026-05-04 20:37 28.60391 47.75338 19888 ft 401 kts 271°
2026-05-04 20:38 28.60785 47.71993 19999 ft 405 kts 281°
2026-05-04 20:38 28.61737 47.68726 20008 ft 405 kts 289°
2026-05-04 20:38 28.62793 47.65539 20009 ft 405 kts 286°
2026-05-04 20:38 28.63575 47.62491 20008 ft 404 kts 282°
2026-05-04 20:39 28.64189 47.59374 20007 ft 403 kts 279°
2026-05-04 20:39 28.64682 47.56287 20013 ft 408 kts 278°
2026-05-04 20:39 28.65178 47.52883 20727 ft 418 kts 277°
2026-05-04 20:39 28.65614 47.49422 22091 ft 413 kts 276°
2026-05-04 20:40 28.65996 47.46051 23153 ft 413 kts 275°
2026-05-04 20:40 28.66355 47.42574 23947 ft 420 kts 275°
2026-05-04 20:40 28.66687 47.39110 24724 ft 426 kts 274°
2026-05-04 20:40 28.67008 47.35588 25617 ft 429 kts 274°
2026-05-04 20:41 28.67326 47.31982 26605 ft 429 kts 273°
2026-05-04 20:41 28.67636 47.28368 27545 ft 431 kts 273°
2026-05-04 20:41 28.67940 47.24771 28364 ft 434 kts 273°
2026-05-04 20:41 28.68245 47.21099 29181 ft 437 kts 273°
2026-05-04 20:42 28.68551 47.17380 30205 ft 434 kts 272°
2026-05-04 20:42 28.68844 47.13813 31406 ft 424 kts 272°
2026-05-04 20:42 28.69132 47.10279 32543 ft 414 kts 271°
2026-05-04 20:42 28.69389 47.07104 33458 ft 408 kts 270°
2026-05-04 20:43 28.69655 47.03778 34287 ft 406 kts 270°
2026-05-04 20:43 28.69918 47.00466 34961 ft 406 kts 270°
2026-05-04 20:43 28.70191 46.97026 35622 ft 406 kts 270°
2026-05-04 20:43 28.70456 46.93685 36269 ft 405 kts 270°
2026-05-04 20:44 28.70720 46.90335 36906 ft 404 kts 270°
2026-05-04 20:44 28.70983 46.87000 37476 ft 402 kts 269°
2026-05-04 20:44 28.71254 46.83589 37850 ft 404 kts 270°
2026-05-04 20:44 28.71522 46.80230 37872 ft 406 kts 270°
2026-05-04 20:45 28.72058 46.73498 37868 ft 405 kts 270°
2026-05-04 20:45 28.72594 46.66724 37859 ft 405 kts 270°
2026-05-04 20:46 28.73120 46.60032 37856 ft 403 kts 270°
2026-05-04 20:46 28.73635 46.53412 37856 ft 406 kts 270°
2026-05-04 20:47 28.74149 46.46784 37848 ft 404 kts 269°
2026-05-04 20:47 28.74668 46.40024 37850 ft 415 kts 270°
2026-05-04 20:48 28.75197 46.33084 37865 ft 428 kts 270°
2026-05-04 20:48 28.75703 46.26206 37861 ft 433 kts 270°
2026-05-04 20:49 28.76218 46.19139 37864 ft 432 kts 269°
2026-05-04 20:49 28.76741 46.11918 37873 ft 431 kts 269°
2026-05-04 20:50 28.77257 46.04711 37884 ft 432 kts 270°
2026-05-04 20:50 28.77767 45.97551 37887 ft 432 kts 269°
2026-05-04 20:51 28.78280 45.90303 37886 ft 431 kts 269°
2026-05-04 20:51 28.78781 45.83154 37884 ft 431 kts 270°
2026-05-04 20:52 28.79288 45.75866 37878 ft 430 kts 269°
2026-05-04 20:52 28.79767 45.68929 37878 ft 430 kts 269°
2026-05-04 20:53 28.80274 45.61604 37867 ft 431 kts 270°
2026-05-04 20:53 28.80759 45.54567 37859 ft 429 kts 270°
2026-05-04 20:54 28.81247 45.47411 37864 ft 430 kts 270°
2026-05-04 20:54 28.81734 45.40214 37862 ft 429 kts 270°
2026-05-04 20:55 28.82215 45.33052 37880 ft 430 kts 269°
2026-05-04 20:55 28.82700 45.25777 37886 ft 429 kts 269°
2026-05-04 20:56 28.83176 45.18576 37885 ft 428 kts 269°
2026-05-04 20:56 28.83627 45.11687 37887 ft 428 kts 269°
2026-05-04 20:57 28.84092 45.04531 37896 ft 430 kts 269°
2026-05-04 20:57 28.84555 44.97365 37902 ft 428 kts 269°
2026-05-04 20:58 28.85002 44.90382 37908 ft 426 kts 269°
2026-05-04 20:58 28.85456 44.83221 37894 ft 426 kts 269°
2026-05-04 20:59 28.85899 44.76178 37888 ft 427 kts 270°
2026-05-04 20:59 28.86424 44.69072 37881 ft 425 kts 270°
2026-05-04 21:00 28.86995 44.62098 37884 ft 427 kts 270°
2026-05-04 21:00 28.87569 44.54980 37878 ft 428 kts 270°
2026-05-04 21:01 28.88114 44.48150 37880 ft 425 kts 270°
2026-05-04 21:01 28.88683 44.40942 37875 ft 427 kts 270°
2026-05-04 21:02 28.89220 44.34096 37885 ft 426 kts 270°
2026-05-04 21:02 28.89773 44.26997 37908 ft 425 kts 270°
2026-05-04 21:03 28.90316 44.19969 37913 ft 426 kts 270°
2026-05-04 21:03 28.90855 44.12941 37915 ft 425 kts 270°
2026-05-04 21:04 28.91390 44.05933 37912 ft 424 kts 270°
2026-05-04 21:04 28.91910 43.99067 37906 ft 423 kts 270°
2026-05-04 21:05 28.92443 43.91962 37910 ft 425 kts 270°
2026-05-04 21:05 28.92970 43.84907 37907 ft 424 kts 270°
2026-05-04 21:06 28.93472 43.78141 37910 ft 423 kts 270°
2026-05-04 21:06 28.93970 43.71368 37914 ft 424 kts 270°
2026-05-04 21:07 28.94474 43.64481 37909 ft 425 kts 270°
2026-05-04 21:07 28.94978 43.57532 37897 ft 426 kts 270°
2026-05-04 21:08 28.95482 43.50546 37900 ft 426 kts 270°
2026-05-04 21:08 28.95989 43.43458 37899 ft 427 kts 270°
2026-05-04 21:09 28.96496 43.36328 37897 ft 424 kts 270°
2026-05-04 21:09 28.96999 43.29180 37915 ft 427 kts 269°
2026-05-04 21:10 28.97496 43.22066 37922 ft 425 kts 270°
2026-05-04 21:10 28.97988 43.14978 37929 ft 425 kts 270°
2026-05-04 21:11 28.98484 43.07780 37928 ft 426 kts 270°
2026-05-04 21:11 28.98969 43.00689 37928 ft 427 kts 269°
2026-05-04 21:12 28.99452 42.93565 37928 ft 425 kts 270°
2026-05-04 21:12 28.99930 42.86456 37937 ft 425 kts 270°
2026-05-04 21:13 29.00401 42.79398 37938 ft 424 kts 270°
2026-05-04 21:13 29.00869 42.72324 37937 ft 424 kts 270°
2026-05-04 21:14 29.01335 42.65222 37932 ft 424 kts 270°
2026-05-04 21:14 29.01795 42.58181 37931 ft 421 kts 270°
2026-05-04 21:15 29.02248 42.51164 37937 ft 422 kts 269°
2026-05-04 21:15 29.02696 42.44165 37938 ft 422 kts 269°
2026-05-04 21:16 29.03143 42.37133 37937 ft 420 kts 269°
2026-05-04 21:16 29.03582 42.30173 37959 ft 421 kts 269°
2026-05-04 21:17 29.04022 42.23139 37963 ft 418 kts 269°
2026-05-04 21:17 29.04455 42.16136 37973 ft 421 kts 269°
2026-05-04 21:18 29.04888 42.09111 37975 ft 418 kts 269°
2026-05-04 21:18 29.05314 42.02109 37977 ft 419 kts 269°
2026-05-04 21:19 29.05736 41.95113 37983 ft 421 kts 269°
2026-05-04 21:19 29.06154 41.88106 37991 ft 420 kts 269°
2026-05-04 21:20 29.06566 41.81124 37987 ft 419 kts 269°
2026-05-04 21:20 29.06976 41.74106 37994 ft 419 kts 269°
2026-05-04 21:21 29.07378 41.67166 37992 ft 418 kts 269°
2026-05-04 21:21 29.07779 41.60162 37987 ft 420 kts 269°
2026-05-04 21:22 29.08176 41.53206 37990 ft 418 kts 269°
2026-05-04 21:22 29.08571 41.46173 37992 ft 419 kts 269°
2026-05-04 21:23 29.08963 41.39196 37993 ft 419 kts 269°
2026-05-04 21:23 29.09347 41.32303 38018 ft 420 kts 269°
2026-05-04 21:24 29.09740 41.25210 38014 ft 418 kts 269°
2026-05-04 21:24 29.10119 41.18284 38011 ft 419 kts 268°
2026-05-04 21:25 29.10497 41.11316 38005 ft 417 kts 268°
2026-05-04 21:25 29.10869 41.04391 38002 ft 417 kts 269°
2026-05-04 21:26 29.11239 40.97442 38012 ft 418 kts 269°
2026-05-04 21:26 29.11606 40.90473 38022 ft 417 kts 268°
2026-05-04 21:27 29.11970 40.83498 38025 ft 418 kts 269°
2026-05-04 21:27 29.12327 40.76572 38029 ft 419 kts 268°
2026-05-04 21:28 29.12681 40.69669 38019 ft 418 kts 268°
2026-05-04 21:28 29.13031 40.62747 38015 ft 420 kts 268°
2026-05-04 21:29 29.13222 40.55838 38017 ft 415 kts 264°
2026-05-04 21:29 29.13003 40.49004 38010 ft 414 kts 264°
2026-05-04 21:30 29.12776 40.42175 38014 ft 416 kts 264°
2026-05-04 21:30 29.12546 40.35294 38007 ft 416 kts 264°
2026-05-04 21:31 29.12196 40.25012 38036 ft 417 kts 264°
2026-05-04 21:32 29.11959 40.18144 38029 ft 416 kts 263°
2026-05-04 21:32 29.11718 40.11285 38038 ft 418 kts 263°
2026-05-04 21:33 29.11471 40.04366 38029 ft 418 kts 263°
2026-05-04 21:33 29.11224 39.97507 38029 ft 418 kts 263°
2026-05-04 21:34 29.10971 39.90602 38036 ft 418 kts 263°
2026-05-04 21:34 29.10963 39.83712 38038 ft 419 kts 266°
2026-05-04 21:35 29.11013 39.76753 38023 ft 420 kts 266°
2026-05-04 21:35 29.11048 39.69866 38047 ft 420 kts 266°
2026-05-04 21:36 29.11072 39.63122 38032 ft 419 kts 266°
2026-05-04 21:36 29.11092 39.56229 38039 ft 420 kts 266°
2026-05-04 21:37 29.11106 39.49417 38034 ft 420 kts 266°
2026-05-04 21:37 29.11117 39.42464 38040 ft 419 kts 266°
2026-05-04 21:38 29.11124 39.35881 38034 ft 420 kts 266°
2026-05-04 21:38 29.11127 39.29063 38053 ft 420 kts 265°
2026-05-04 21:39 29.11126 39.22017 38050 ft 419 kts 265°
2026-05-04 21:39 29.11122 39.15121 38051 ft 419 kts 265°
2026-05-04 21:40 29.11115 39.08634 38046 ft 421 kts 265°
2026-05-04 21:40 29.11105 39.01747 38041 ft 419 kts 265°
2026-05-04 21:41 29.11089 38.94861 38047 ft 422 kts 265°
2026-05-04 21:41 29.11068 38.87907 38050 ft 421 kts 265°
2026-05-04 21:42 29.11040 38.81145 38057 ft 420 kts 265°
2026-05-04 21:42 29.11008 38.74283 38052 ft 421 kts 265°
2026-05-04 21:43 29.10972 38.67275 38047 ft 421 kts 265°
2026-05-04 21:43 29.10932 38.60253 38045 ft 420 kts 265°
2026-05-04 21:44 29.10889 38.53222 38041 ft 420 kts 265°
2026-05-04 21:44 29.10843 38.46316 38039 ft 422 kts 266°
2026-05-04 21:45 29.10793 38.39458 38046 ft 420 kts 266°
2026-05-04 21:45 29.10743 38.32948 38064 ft 418 kts 265°
2026-05-04 21:46 29.10686 38.26107 38069 ft 419 kts 265°
2026-05-04 21:46 29.10627 38.19233 38068 ft 416 kts 265°
2026-05-04 21:47 29.10562 38.12315 38063 ft 417 kts 265°
2026-05-04 21:47 29.10494 38.05442 38066 ft 416 kts 265°
2026-05-04 21:48 29.10423 37.98579 38061 ft 417 kts 265°
2026-05-04 21:48 29.10350 37.91756 38061 ft 416 kts 266°
2026-05-04 21:49 29.10276 37.85256 38061 ft 418 kts 265°
2026-05-04 21:49 29.10195 37.78384 38060 ft 417 kts 265°
2026-05-04 21:50 29.10111 37.71583 38059 ft 417 kts 265°
2026-05-04 21:50 29.10025 37.64870 38065 ft 418 kts 265°
2026-05-04 21:51 29.09939 37.58323 38070 ft 417 kts 265°
2026-05-04 21:51 29.09844 37.51503 38073 ft 418 kts 265°
2026-05-04 21:52 29.09786 37.44765 38066 ft 417 kts 265°
2026-05-04 21:52 29.09739 37.37974 38060 ft 417 kts 266°
2026-05-04 21:53 29.09688 37.31268 38079 ft 418 kts 266°
2026-05-04 21:53 29.09633 37.24678 38085 ft 416 kts 265°
2026-05-04 21:54 29.09574 37.18051 38084 ft 419 kts 265°
2026-05-04 21:54 29.09512 37.11438 38080 ft 417 kts 265°
2026-05-04 21:55 29.09447 37.04826 38087 ft 419 kts 265°
2026-05-04 21:55 29.09379 36.98212 38080 ft 417 kts 265°
2026-05-04 21:56 29.09306 36.91576 38079 ft 418 kts 265°
2026-05-04 21:56 29.09231 36.84936 38073 ft 418 kts 265°
2026-05-04 21:57 29.09153 36.78317 38084 ft 418 kts 265°
2026-05-04 21:57 29.09071 36.71695 38083 ft 418 kts 266°
2026-05-04 21:58 29.08986 36.65084 38084 ft 417 kts 266°
2026-05-04 21:58 29.08898 36.58504 38082 ft 416 kts 266°
2026-05-04 21:59 29.08807 36.51888 38074 ft 416 kts 265°
2026-05-04 21:59 29.08694 36.45279 38078 ft 416 kts 265°
2026-05-04 22:00 29.08512 36.38700 38080 ft 415 kts 265°
2026-05-04 22:00 29.08328 36.32109 38056 ft 416 kts 265°
2026-05-04 22:01 29.08144 36.25528 38101 ft 416 kts 265°
2026-05-04 22:01 29.07958 36.18955 38100 ft 414 kts 264°
2026-05-04 22:02 29.07770 36.12420 38081 ft 415 kts 265°
2026-05-04 22:02 29.07588 36.06155 38095 ft 416 kts 264°
2026-05-04 22:03 29.07397 35.99701 38080 ft 414 kts 265°
2026-05-04 22:03 29.07198 35.93105 38085 ft 416 kts 265°
2026-05-04 22:04 29.07001 35.86668 38083 ft 415 kts 265°
2026-05-04 22:04 29.06799 35.80165 38083 ft 415 kts 265°
2026-05-04 22:05 29.06595 35.73692 38084 ft 416 kts 265°
2026-05-04 22:05 29.06387 35.67206 38083 ft 416 kts 265°
2026-05-04 22:06 29.06173 35.60621 38086 ft 417 kts 265°
2026-05-04 22:06 29.05959 35.54115 38083 ft 415 kts 265°
2026-05-04 22:07 29.05738 35.47515 38080 ft 416 kts 265°
2026-05-04 22:07 29.05516 35.40984 38077 ft 417 kts 265°
2026-05-04 22:08 29.05288 35.34353 38080 ft 417 kts 265°
2026-05-04 22:08 29.05060 35.27814 38099 ft 416 kts 265°
2026-05-04 22:09 29.04831 35.21374 38096 ft 417 kts 265°
2026-05-04 22:09 29.04587 35.14571 38090 ft 417 kts 265°
2026-05-04 22:10 29.04340 35.07788 38093 ft 417 kts 265°
2026-05-04 22:10 29.04090 35.01019 38091 ft 417 kts 265°
2026-05-04 22:11 29.03835 34.94202 38092 ft 417 kts 265°
2026-05-04 22:11 29.03566 34.87120 38089 ft 417 kts 265°
2026-05-04 22:12 29.03374 34.79893 38075 ft 417 kts 266°
2026-05-04 22:12 29.03286 34.73259 38065 ft 418 kts 266°
2026-05-04 22:13 29.03550 34.66618 38020 ft 425 kts 276°
2026-05-04 22:13 29.04352 34.63278 38138 ft 427 kts 282°
2026-05-04 22:13 29.05319 34.59962 38080 ft 428 kts 283°
2026-05-04 22:14 29.07243 34.53429 38084 ft 428 kts 283°
2026-05-04 22:14 29.09152 34.46928 38084 ft 429 kts 282°
2026-05-04 22:15 29.11036 34.40496 38087 ft 426 kts 283°
2026-05-04 22:15 29.12951 34.33939 38093 ft 426 kts 282°
2026-05-04 22:16 29.14845 34.27439 38101 ft 427 kts 282°
2026-05-04 22:16 29.16751 34.20886 38102 ft 427 kts 283°
2026-05-04 22:17 29.18615 34.14465 38098 ft 425 kts 282°
2026-05-04 22:17 29.20507 34.07934 38100 ft 426 kts 282°
2026-05-04 22:18 29.22382 34.01445 38102 ft 427 kts 283°
2026-05-04 22:18 29.24263 33.94927 38094 ft 427 kts 283°
2026-05-04 22:19 29.26145 33.88393 38089 ft 426 kts 283°
2026-05-04 22:19 29.28010 33.81905 38089 ft 429 kts 283°
2026-05-04 22:20 29.29883 33.75380 38089 ft 426 kts 282°
2026-05-04 22:20 29.31757 33.68837 38088 ft 427 kts 282°
2026-05-04 22:21 29.33619 33.62320 38088 ft 428 kts 283°
2026-05-04 22:21 29.35492 33.55753 38084 ft 428 kts 282°
2026-05-04 22:22 29.37357 33.49199 38083 ft 428 kts 282°
2026-05-04 22:22 29.39231 33.42597 38079 ft 427 kts 283°
2026-05-04 22:23 29.41095 33.36021 38076 ft 427 kts 283°
2026-05-04 22:23 29.42912 33.29594 38097 ft 430 kts 282°
2026-05-04 22:24 29.44736 33.23131 38093 ft 427 kts 282°
2026-05-04 22:24 29.46567 33.16631 38094 ft 429 kts 282°
2026-05-04 22:25 29.48352 33.10286 38087 ft 418 kts 282°
2026-05-04 22:25 29.49234 33.07153 38086 ft 404 kts 282°
2026-05-04 22:25 29.50074 33.04164 38091 ft 394 kts 282°
2026-05-04 22:26 29.51734 32.98214 38089 ft 400 kts 282°
2026-05-04 22:26 29.53424 32.92165 38090 ft 398 kts 282°
2026-05-04 22:27 29.55081 32.86218 38083 ft 399 kts 282°
2026-05-04 22:27 29.56770 32.80138 38089 ft 413 kts 282°
2026-05-04 22:28 29.58545 32.73742 38087 ft 427 kts 282°
2026-05-04 22:28 29.60339 32.67249 37670 ft 421 kts 281°
2026-05-04 22:28 29.61089 32.64023 36712 ft 423 kts 280°
2026-05-04 22:29 29.61816 32.60742 35523 ft 428 kts 281°
2026-05-04 22:29 29.62558 32.57409 34308 ft 432 kts 281°
2026-05-04 22:29 29.63297 32.54108 33273 ft 431 kts 281°
2026-05-04 22:29 29.64038 32.50812 32563 ft 425 kts 281°
2026-05-04 22:30 29.64775 32.47542 32034 ft 417 kts 281°
2026-05-04 22:30 29.65488 32.44374 31482 ft 410 kts 281°
2026-05-04 22:30 29.66205 32.41188 30830 ft 406 kts 281°
2026-05-04 22:30 29.66901 32.38096 30154 ft 403 kts 281°
2026-05-04 22:31 29.67600 32.34987 29471 ft 400 kts 281°
2026-05-04 22:31 29.68287 32.31928 28877 ft 395 kts 281°
2026-05-04 22:31 29.68972 32.28879 28326 ft 390 kts 281°
2026-05-04 22:31 29.69645 32.25877 27694 ft 388 kts 281°
2026-05-04 22:32 29.70316 32.22878 26989 ft 386 kts 281°
2026-05-04 22:32 29.70985 32.19894 26321 ft 384 kts 281°
2026-05-04 22:32 29.71660 32.16875 25663 ft 381 kts 281°
2026-05-04 22:32 29.72338 32.13837 24998 ft 379 kts 282°
2026-05-04 22:33 29.73004 32.10854 24354 ft 376 kts 282°
2026-05-04 22:33 29.73678 32.07828 23692 ft 374 kts 282°
2026-05-04 22:33 29.74337 32.04867 23018 ft 372 kts 282°
2026-05-04 22:33 29.74991 32.01927 22379 ft 370 kts 282°
2026-05-04 22:34 29.75638 31.99014 21801 ft 366 kts 282°
2026-05-04 22:34 29.76269 31.96170 21239 ft 363 kts 282°
2026-05-04 22:34 29.76895 31.93349 20649 ft 360 kts 282°
2026-05-04 22:34 29.77517 31.90539 19917 ft 356 kts 282°
2026-05-04 22:35 29.78185 31.87769 19170 ft 353 kts 289°
2026-05-04 22:35 29.79401 31.85242 18543 ft 351 kts 300°
2026-05-04 22:35 29.80826 31.82966 18304 ft 335 kts 302°
2026-05-04 22:35 29.82236 31.80771 18113 ft 316 kts 302°
2026-05-04 22:36 29.83563 31.78707 17961 ft 298 kts 301°
2026-05-04 22:36 29.84789 31.76797 17835 ft 281 kts 301°
2026-05-04 22:36 29.85963 31.74966 17657 ft 267 kts 301°
2026-05-04 22:36 29.87116 31.73161 17217 ft 263 kts 301°
2026-05-04 22:37 29.88248 31.71389 16638 ft 264 kts 301°
2026-05-04 22:37 29.89392 31.69601 16095 ft 263 kts 302°
2026-05-04 22:37 29.90497 31.67875 15611 ft 262 kts 302°
2026-05-04 22:37 29.91429 31.66058 15064 ft 257 kts 286°
2026-05-04 22:38 29.91863 31.64087 14547 ft 256 kts 281°
2026-05-04 22:38 29.92195 31.62093 14070 ft 254 kts 280°
2026-05-04 22:38 29.92519 31.60089 13589 ft 253 kts 281°
2026-05-04 22:38 29.92844 31.58085 13107 ft 252 kts 280°
2026-05-04 22:39 29.93164 31.56116 12643 ft 251 kts 281°
2026-05-04 22:39 29.93488 31.54131 12143 ft 251 kts 281°
2026-05-04 22:39 29.93804 31.52183 11674 ft 250 kts 281°
2026-05-04 22:39 29.94124 31.50216 11203 ft 249 kts 281°
2026-05-04 22:40 29.94425 31.48246 10714 ft 249 kts 276°
2026-05-04 22:40 29.94166 31.46298 10241 ft 255 kts 250°
2026-05-04 22:40 29.93159 31.44595 9876 ft 260 kts 236°
2026-05-04 22:40 29.91990 31.43007 9560 ft 259 kts 235°
2026-05-04 22:41 29.90807 31.41428 9204 ft 258 kts 235°
2026-05-04 22:41 29.89641 31.39868 8869 ft 257 kts 235°
2026-05-04 22:41 29.88476 31.38310 8751 ft 247 kts 235°
2026-05-04 22:41 29.87384 31.36863 8725 ft 233 kts 235°
2026-05-04 22:42 29.86346 31.35499 8532 ft 228 kts 235°
2026-05-04 22:42 29.85269 31.34071 7768 ft 247 kts 234°
2026-05-04 22:42 29.84126 31.32518 6951 ft 264 kts 234°
2026-05-04 22:42 29.83122 31.30765 6465 ft 260 kts 253°
2026-05-04 22:43 29.82930 31.28760 6056 ft 253 kts 281°
2026-05-04 22:43 29.83619 31.26938 5639 ft 250 kts 309°
2026-05-04 22:43 29.84897 31.25492 5245 ft 249 kts 317°
2026-05-04 22:43 29.86363 31.24271 4876 ft 248 kts 335°
2026-05-04 22:44 29.88061 31.23889 4790 ft 238 kts 356°
2026-05-04 22:44 29.89775 31.23939 4510 ft 235 kts 359°
2026-05-04 22:44 29.91418 31.24010 4257 ft 231 kts 359°
2026-05-04 22:44 29.92980 31.24080 4220 ft 217 kts 359°
2026-05-04 22:45 29.94498 31.24147 4214 ft 206 kts 359°
2026-05-04 22:45 29.97071 31.25296 4179 ft 187 kts 37°
2026-05-04 22:45 29.98004 31.26411 3999 ft 186 kts 42°
2026-05-04 22:46 29.98882 31.27575 3734 ft 183 kts 43°
2026-05-04 22:46 29.99735 31.28715 3475 ft 179 kts 43°
2026-05-04 22:46 30.00530 31.29776 3225 ft 164 kts 42°
2026-05-04 22:46 30.01283 31.30769 3001 ft 154 kts 41°
2026-05-04 22:47 30.01982 31.31693 2786 ft 145 kts 41°
2026-05-04 22:47 30.02639 31.32561 2585 ft 136 kts 41°
2026-05-04 22:47 30.03267 31.33389 2391 ft 136 kts 41°
2026-05-04 22:47 30.03904 31.34232 2193 ft 135 kts 42°
2026-05-04 22:48 30.04541 31.35075 1999 ft 136 kts 42°
2026-05-04 22:48 30.05178 31.35919 1807 ft 135 kts 41°
2026-05-04 22:48 30.05823 31.36771 1610 ft 135 kts 42°
2026-05-04 22:48 30.06476 31.37635 1420 ft 135 kts 43°
2026-05-04 22:49 30.07131 31.38501 1209 ft 136 kts 43°
2026-05-04 22:49 30.07793 31.39359 960 ft 136 kts 43°
2026-05-04 22:49 30.08441 31.40198 744 ft 134 kts 43°
2026-05-04 22:49 30.09064 31.41023 609 ft 135 kts 45°
2026-05-04 22:50 30.09695 31.41858 453 ft 137 kts 45°
2026-05-04 22:50 30.10288 31.42648 391 ft 113 kts 50°
2026-05-04 22:50 30.10722 31.43240 391 ft 83 kts 49°
2026-05-04 22:50 30.11037 31.43662 391 ft 43 kts 48°
2026-05-04 22:51 30.11218 31.43892 391 ft 31 kts 42°
2026-05-04 22:51 30.11400 31.44017 391 ft 29 kts 22°
2026-05-04 22:51 30.11486 31.44059 391 ft 11 kts 23°
2026-05-04 22:51 30.11542 31.44065 391 ft 7 kts 290°
2026-05-04 22:52 30.11530 31.44023 391 ft 5 kts 239°
2026-05-04 22:52 30.11503 31.43980 391 ft 7 kts 229°
2026-05-04 22:52 30.11467 31.43931 391 ft 8 kts 229°
2026-05-04 22:52 30.11423 31.43873 391 ft 9 kts 229°
2026-05-04 22:53 30.11375 31.43809 391 ft 11 kts 229°
2026-05-04 22:53 30.11322 31.43737 391 ft 11 kts 229°
2026-05-04 22:53 30.11261 31.43656 391 ft 15 kts 229°
2026-05-04 22:53 30.11189 31.43557 391 ft 14 kts 241°
2026-05-04 22:54 30.11220 31.43453 391 ft 14 kts 313°
2026-05-04 22:54 30.11293 31.43375 391 ft 13 kts 319°
2026-05-04 22:54 30.11367 31.43301 391 ft 13 kts 319°
2026-05-04 22:54 30.11438 31.43231 391 ft 13 kts 319°
2026-05-04 22:55 30.11508 31.43163 391 ft 13 kts 319°
2026-05-04 22:55 30.11577 31.43095 391 ft 12 kts 319°
2026-05-04 22:55 30.11644 31.43029 391 ft 12 kts 318°
2026-05-04 22:55 30.11714 31.42958 391 ft 14 kts 318°
2026-05-04 22:56 30.11800 31.42874 391 ft 17 kts 320°
2026-05-04 22:56 30.11902 31.42776 391 ft 19 kts 318°
2026-05-04 22:56 30.12002 31.42674 391 ft 18 kts 318°
2026-05-04 22:56 30.12100 31.42575 391 ft 17 kts 319°
2026-05-04 22:57 30.12169 31.42506 391 ft 9 kts 316°
2026-05-04 22:57 30.12203 31.42442 391 ft 9 kts 273°
2026-05-04 22:57 30.12177 31.42368 391 ft 10 kts 234°
2026-05-04 22:57 30.12121 31.42289 391 ft 13 kts 229°
2026-05-04 22:58 30.12057 31.42204 391 ft 13 kts 229°
2026-05-04 22:58 30.11994 31.42121 391 ft 13 kts 228°
2026-05-04 22:58 30.11931 31.42037 391 ft 13 kts 229°
2026-05-04 22:58 30.11868 31.41952 391 ft 13 kts 230°
2026-05-04 22:59 30.11806 31.41868 391 ft 13 kts 229°
2026-05-04 22:59 30.11720 31.41754 391 ft 22 kts 229°
2026-05-04 22:59 30.11617 31.41618 391 ft 21 kts 229°
2026-05-04 22:59 30.11518 31.41485 391 ft 21 kts 228°
2026-05-04 23:00 30.11424 31.41361 391 ft 20 kts 229°
2026-05-04 23:00 30.11330 31.41235 391 ft 20 kts 229°
2026-05-04 23:00 30.11230 31.41102 391 ft 23 kts 229°
2026-05-04 23:00 30.11121 31.40958 391 ft 23 kts 228°
2026-05-04 23:01 30.11012 31.40814 391 ft 24 kts 229°
2026-05-04 23:01 30.10893 31.40653 391 ft 27 kts 229°
2026-05-04 23:01 30.10784 31.40509 391 ft 19 kts 229°
2026-05-04 23:01 30.10699 31.40395 391 ft 13 kts 230°
2026-05-04 23:02 30.10694 31.40298 391 ft 12 kts 288°
2026-05-04 23:02 30.10674 31.40208 391 ft 12 kts 233°
2026-05-04 23:02 30.10613 31.40124 391 ft 14 kts 230°
2026-05-04 23:02 30.10540 31.40030 391 ft 15 kts 228°
2026-05-04 23:03 30.10487 31.39926 391 ft 14 kts 271°
2026-05-04 23:03 30.10558 31.39852 391 ft 14 kts 342°
2026-05-04 23:03 30.10652 31.39821 391 ft 13 kts 344°
2026-05-04 23:03 30.10723 31.39799 391 ft 9 kts 345°
2026-05-04 23:04 30.10786 31.39780 391 ft 7 kts 345°
2026-05-04 23:04 30.10820 31.39776 391 ft 4 kts 18°
2026-05-04 23:04 30.10840 31.39803 391 ft 4 kts 65°
2026-05-04 23:04 30.10846 31.39820 391 ft 1 kts 65°
2026-05-04 23:05 30.10851 31.39835 391 ft 2 kts 74°
2026-05-04 23:05 30.10852 31.39841 391 ft 0 kts 73°